Temperature
10 10 10 9 9 9 8 8 8 8 7 7 7 7 7 7 7 7 7 7 7 7 7 6 6 6 6 6 6 6 5 5 5 5 5 5 4 4 4 4 4 4 4
9 9 9 8 8 8 7 7 7 7 6 6 6 6 6 6 6 6 6 6 6 6 6 6 5 5 5 5 5 5 5 5 4 4 4 4 4 4 3 3 3 3 3
8 8 8 7 7 7 6 6 6 6 6 6 6 6 6 6 6 6 6 6 5 5 5 5 5 5 5 4 4 4 4 4 4 3 3 3 3 3 3 3 2 2 2
8 7 7 6 6 6 5 5 5 5 5 5 5 5 5 5 5 5 5 5 5 4 4 4 4 4 3 3 3 3 3 3 3 2 2 2 2 2 2 2 1 1 1
7 7 6 6 5 5 4 4 4 4 4 4 4 4 4 4 4 4 4 4 4 3 3 3 3 3 3 2 2 2 2 2 2 2 1 1 1 1 0 0 0 0 0
7 6 5 5 4 4 3 3 3 2 2 2 2 3 3 3 3 3 3 3 3 3 2 2 2 2 2 2 2 2 1 1 1 1 0 -0 -0 -1 -1 -1 -1 -1 -2
6 5 5 4 3 3 2 2 1 1 1 1 1 2 2 2 2 2 3 2 2 2 2 2 2 1 1 1 1 1 1 0 0 -0 -1 -1 -2 -2 -2 -2 -2 -2 -3
5 5 4 3 2 2 1 1 1 0 0 0 1 1 1 1 2 2 2 2 2 2 1 1 1 1 0 0 0 -0 -0 -1 -1 -1 -2 -2 -2 -3 -3 -3 -3 -3 -3
5 4 4 3 2 1 1 0 0 0 0 0 0 1 1 1 1 1 1 1 1 1 1 1 0 -0 -0 -0 -1 -1 -2 -2 -2 -2 -2 -2 -3 -3 -3 -4 -4 -4 -5
5 4 3 2 1 1 0 0 0 -0 -0 -0 0 0 0 0 1 1 1 1 1 1 0 0 -0 -1 -1 -1 -2 -2 -3 -3 -3 -3 -3 -3 -3 -3 -4 -4 -4 -5 -5
4 3 3 2 1 1 0 0 0 -0 -0 -0 -0 -0 -0 0 0 0 0 0 0 0 -0 -0 -1 -1 -1 -2 -2 -3 -3 -3 -3 -4 -4 -4 -4 -4 -4 -4 -5 -5 -5
4 3 3 2 1 1 0 0 -0 -0 -0 -0 -0 -0 -0 -0 0 0 0 -0 -0 -0 -1 -1 -1 -1 -2 -2 -3 -3 -3 -3 -4 -4 -4 -4 -5 -5 -5 -5 -5 -5 -5
3 3 2 2 1 1 0 0 -0 -0 -0 -0 -0 -0 -0 -0 -0 -0 -0 -0 -0 -1 -1 -1 -1 -2 -2 -2 -3 -3 -3 -4 -4 -4 -5 -5 -5 -5 -5 -5 -5 -5 -5
3 3 2 2 1 1 1 0 0 0 0 -0 -0 -0 -0 -0 -0 -0 -0 -0 -1 -1 -1 -1 -2 -2 -2 -3 -3 -3 -4 -4 -4 -5 -5 -5 -5 -5 -5 -5 -5 -6 -6
3 2 2 2 1 1 1 1 1 1 0 0 -0 -0 -0 -0 -0 -0 -0 -1 -1 -1 -1 -2 -2 -2 -2 -3 -3 -3 -4 -4 -4 -5 -5 -5 -5 -5 -6 -6 -6 -6 -6
3 2 2 2 2 1 1 1 1 1 0 0 0 -0 -0 -0 -0 -0 -1 -1 -1 -2 -2 -2 -2 -3 -3 -3 -3 -4 -4 -4 -5 -5 -5 -5 -6 -6 -6 -6 -6 -6 -6
3 2 2 2 2 1 1 1 1 1 0 0 0 0 -0 -0 -1 -1 -1 -1 -2 -2 -2 -2 -2 -3 -3 -3 -3 -4 -4 -5 -5 -5 -5 -6 -6 -6 -6 -7 -7 -7 -7
2 2 2 2 1 1 1 1 1 1 0 1 0 -0 -0 -1 -1 -1 -1 -2 -2 -2 -2 -2 -2 -3 -3 -3 -4 -4 -4 -5 -5 -5 -5 -6 -6 -6 -7 -7 -7 -7 -7
2 2 2 1 1 1 1 1 0 0 0 0 -0 -0 -0 -1 -1 -2 -2 -2 -2 -2 -2 -2 -3 -3 -3 -3 -4 -4 -4 -5 -5 -5 -6 -6 -6 -7 -7 -7 -7 -8 -8
2 1 1 1 1 1 1 1 0 0 0 0 -0 -0 -1 -1 -1 -2 -2 -2 -2 -2 -2 -3 -3 -3 -3 -4 -4 -4 -4 -5 -5 -5 -6 -6 -7 -7 -7 -7 -8 -8 -8
1 1 1 1 0 0 0 0 0 0 0 0 -0 -0 -1 -1 -1 -2 -2 -2 -2 -3 -3 -3 -3 -3 -4 -4 -4 -4 -5 -5 -5 -5 -6 -6 -7 -7 -7 -8 -8 -8 -8
0 0 0 0 0 0 -0 -0 -0 -0 -0 -0 -0 -1 -1 -1 -1 -2 -2 -2 -3 -3 -3 -3 -3 -4 -4 -4 -4 -4 -5 -5 -5 -6 -6 -6 -7 -7 -8 -8 -8 -8 -8
-0 -0 -0 -0 -0 -0 -1 -1 -1 -1 -1 -1 -1 -1 -1 -2 -2 -2 -2 -3 -3 -4 -4 -4 -4 -4 -4 -4 -5 -5 -5 -5 -6 -6 -6 -7 -7 -7 -8 -8 -8 -9 -9
-1 -1 -1 -1 -1 -1 -1 -1 -1 -1 -1 -2 -2 -2 -2 -2 -2 -3 -3 -3 -3 -4 -4 -4 -4 -4 -4 -5 -5 -5 -5 -5 -6 -6 -7 -7 -7 -8 -8 -8 -8 -9 -9
-1 -2 -1 -2 -2 -2 -2 -2 -2 -2 -2 -2 -2 -3 -3 -3 -3 -3 -3 -4 -4 -4 -4 -4 -4 -5 -5 -5 -5 -5 -5 -6 -6 -7 -7 -7 -8 -8 -8 -8 -9 -9 -9
-2 -2 -2 -2 -2 -2 -2 -2 -2 -2 -3 -3 -3 -3 -4 -4 -4 -4 -4 -4 -4 -4 -5 -5 -5 -5 -5 -5 -5 -5 -6 -6 -6 -7 -8 -8 -8 -8 -9 -9 -9 -9 -9
Wind_Speed
5 4 3 2 2 1 1 0 0 1 1 1 1 1 2 2 2 2 2 2 3 3 4 4 5 4 3 3 3 2 1 1 2 1 1 3 4 5 5 6 7 8 9
5 4 3 3 2 1 1 1 0 1 1 1 1 1 2 2 3 3 3 4 4 5 5 5 5 4 5 4 3 3 2 2 0 2 1 2 3 4 4 5 6 7 7
6 5 4 3 3 2 1 1 1 1 2 2 2 2 3 3 4 4 5 5 6 6 6 6 6 6 6 5 5 4 3 3 2 2 2 2 2 3 3 3 4 4 5
6 6 5 4 3 3 2 2 2 2 2 2 3 3 4 4 4 5 5 6 7 7 7 7 6 6 6 5 4 4 3 3 3 2 2 1 2 2 2 3 2 3 3
7 6 5 5 4 4 3 3 3 3 3 3 3 4 4 3 4 4 5 6 6 7 7 7 8 8 8 7 5 4 3 2 2 2 1 1 1 1 2 2 3 3 2
8 7 6 6 5 5 4 4 4 4 4 3 3 4 4 4 6 6 5 5 5 5 5 5 6 7 9 9 9 9 7 4 2 1 1 0 1 1 2 2 3 3 2
8 8 7 7 6 6 5 5 5 5 4 4 4 4 5 6 7 7 6 5 5 4 4 3 4 4 5 4 6 6 8 8 5 2 1 1 1 1 2 2 3 3 4
9 8 8 8 7 6 6 6 5 5 4 4 4 4 4 5 6 7 7 5 5 4 3 3 3 3 3 3 3 3 3 4 4 3 2 2 1 2 2 3 3 4 5
10 9 9 8 8 8 7 7 5 5 5 4 3 3 3 4 5 6 5 3 3 3 2 1 1 1 2 1 1 1 1 2 3 3 3 3 3 3 4 3 3 4 3
10 9 9 9 8 8 8 7 5 5 5 4 4 3 3 3 4 5 4 2 2 2 1 1 1 1 0 1 1 2 2 1 1 1 1 1 1 1 2 2 2 3 3
9 9 9 9 8 8 7 6 6 6 6 5 5 4 4 4 5 6 6 3 3 2 2 2 2 1 2 2 3 3 3 3 3 3 3 2 2 2 1 2 2 3 3
9 9 9 9 8 7 8 7 7 7 7 6 6 6 5 5 6 7 8 7 5 4 3 3 2 3 4 3 3 3 3 3 3 3 4 3 3 2 2 3 4 5 6
10 10 9 9 8 8 8 8 7 7 7 6 6 6 6 6 6 9 9 9 8 5 4 4 4 4 4 4 4 4 4 4 4 4 4 4 3 3 3 4 4 6 8
11 10 9 9 9 9 8 8 8 8 8 8 7 7 6 6 6 6 6 7 8 7 5 5 6 5 5 5 5 4 4 4 5 5 5 4 4 4 4 4 4 4 5
10 10 10 10 10 9 9 9 10 10 9 9 8 7 7 7 8 11 8 7 6 6 5 4 5 5 5 5 5 5 5 5 5 5 5 5 5 5 5 4 4 5 5
10 10 9 9 9 9 9 8 12 12 13 15 12 9 8 9 7 11 13 12 11 10 8 6 6 6 6 6 5 5 5 6 5 5 5 6 5 5 5 5 5 6 7
11 10 9 9 9 9 9 9 8 10 15 16 17 17 15 12 12 12 12 13 13 12 9 8 7 7 7 6 6 6 6 6 5 6 6 6 6 6 6 6 6 7 8
11 10 10 9 9 9 9 9 8 8 8 8 13 18 18 17 15 14 14 11 10 10 9 9 8 8 7 7 7 7 6 6 6 7 7 7 6 7 7 7 7 8 8
9 8 8 8 8 8 8 8 8 9 8 7 6 8 15 16 16 16 14 10 10 9 9 9 9 8 8 7 7 7 7 7 7 7 7 7 7 7 8 8 8 11 10
8 10 9 7 7 8 8 8 9 9 9 8 8 7 7 9 9 10 11 10 10 10 9 9 9 8 8 8 7 7 7 7 8 8 8 7 7 7 9 9 9 9 9
6 7 10 8 8 8 8 9 9 9 9 9 9 9 12 9 10 10 10 10 11 11 10 9 9 8 8 7 7 8 9 8 8 8 8 7 8 8 8 9 9 10 10
5 5 6 7 7 7 7 7 8 8 9 10 8 8 14 10 9 9 9 9 10 9 9 8 8 8 8 8 8 8 8 9 8 8 8 8 8 8 8 9 9 9 10
4 5 5 6 6 8 8 7 8 8 8 8 8 7 8 9 9 9 9 9 8 8 8 8 8 8 8 9 10 9 9 9 8 8 8 8 8 8 9 10 11 12 12
4 5 5 5 5 6 6 7 7 7 8 8 8 8 8 9 9 9 9 8 8 8 8 8 9 10 11 10 10 11 12 13 11 10 11 10 10 9 10 10 12 13 13
4 4 5 5 5 5 6 6 6 7 7 7 7 7 8 8 8 8 8 8 8 8 9 9 9 10 12 14 13 13 14 16 16 13 11 10 12 12 12 13 12 13 14
4 5 4 4 5 5 5 6 6 7 7 7 7 7 7 7 8 8 7 7 7 7 8 8 11 12 12 12 15 16 17 18 18 19 16 11 12 12 13 12 15 14 15
Wind_Direction
155 151 151 142 134 142 154 126 321 332 341 340 349 3 14 20 28 61 72 74 85 75 66 70 65 55 60 50 47 51 37 304 241 131 58 17 13 14 16 21 22 25 29
160 159 155 151 155 160 145 106 72 59 47 40 48 59 55 50 56 76 84 81 84 81 74 74 68 65 63 53 53 56 51 23 249 176 88 32 24 13 13 22 24 28 32
165 166 167 171 173 168 148 124 108 102 92 83 81 81 75 71 74 80 88 87 83 79 74 73 69 70 68 60 56 57 52 48 47 125 105 52 31 13 9 19 25 26 30
173 176 181 180 175 162 152 144 127 118 109 98 91 88 86 85 85 90 94 94 89 81 73 70 67 67 69 66 59 52 51 65 76 97 102 77 42 16 6 2 358 6 9
179 184 185 177 169 164 162 152 139 130 118 110 105 102 98 92 91 102 104 103 100 92 79 71 65 64 64 60 55 48 44 53 69 85 93 88 40 14 6 353 331 329 351
185 187 181 177 175 175 168 158 150 137 126 117 110 106 100 96 105 104 110 110 106 101 91 81 74 66 64 64 60 53 44 43 48 61 98 100 42 11 355 340 332 326 313
187 185 182 181 181 177 168 164 160 148 136 127 116 110 103 103 110 109 103 105 102 93 92 87 77 68 62 66 66 64 60 55 45 16 50 42 15 357 336 321 331 319 309
186 187 184 183 182 176 172 171 164 154 149 141 131 124 114 110 112 113 109 97 97 91 86 80 82 80 67 53 57 59 59 56 45 35 43 30 356 333 306 296 304 298 289
189 189 187 185 182 179 178 173 165 160 158 155 148 144 134 129 132 135 135 130 123 116 101 85 61 73 90 71 46 43 49 75 65 43 26 17 3 340 314 288 295 300 297
191 189 186 185 185 184 180 171 168 166 166 162 162 169 170 175 170 170 173 173 171 171 178 190 254 311 26 232 287 282 286 306 302 286 271 251 279 323 317 293 286 281 288
184 181 182 184 185 181 175 173 169 170 171 176 183 193 201 210 205 201 203 212 211 211 221 228 221 271 287 274 276 283 290 290 284 287 284 278 269 269 278 292 285 261 266
176 179 182 183 181 178 178 176 177 180 186 194 203 211 216 219 224 220 219 224 226 231 237 240 236 255 273 279 272 275 259 261 276 276 274 274 277 281 286 287 279 269 258
179 184 185 184 185 184 186 185 186 193 203 207 212 219 220 216 219 226 230 229 223 232 242 245 250 257 260 262 262 261 250 258 267 268 270 273 277 282 280 272 261 257 258
189 190 188 190 192 193 196 197 200 203 208 212 215 221 222 218 217 214 218 224 225 231 237 233 240 249 253 262 258 246 249 258 265 269 272 274 272 263 262 269 277 283 281
196 196 195 198 199 201 205 208 210 215 216 215 217 218 217 223 220 212 209 212 216 220 220 228 234 238 242 241 242 244 244 245 249 256 262 264 264 264 264 267 269 272 265
201 202 201 201 203 207 210 217 225 225 225 229 232 228 228 231 222 215 218 221 223 222 221 235 239 241 245 247 247 245 241 243 246 248 252 257 262 264 267 263 258 261 267
209 207 205 205 206 209 211 216 222 225 229 233 233 233 232 230 227 223 222 224 228 226 231 239 242 244 245 244 244 245 246 244 241 244 248 251 254 257 259 261 260 261 264
217 213 210 211 210 211 213 217 220 219 218 226 229 231 231 231 229 227 225 224 230 229 233 238 241 243 243 242 241 241 243 242 237 240 244 245 246 250 253 255 256 258 264
220 220 216 215 213 213 214 215 218 222 226 225 214 221 226 229 230 229 223 224 229 230 230 235 239 240 241 240 240 239 239 242 243 241 244 244 242 243 249 253 257 260 260
226 222 215 215 213 214 215 216 218 221 224 225 224 218 202 207 218 221 220 224 229 232 233 234 235 235 235 236 236 235 237 239 239 239 242 242 240 240 246 251 254 258 259
232 227 217 218 218 215 216 219 222 222 224 227 229 219 204 207 216 218 219 223 227 231 232 233 233 232 230 230 231 233 235 240 240 240 241 242 241 242 245 250 253 255 260
239 233 224 224 223 220 221 221 223 227 229 233 235 227 220 218 222 223 223 226 228 230 229 229 231 231 227 225 226 230 234 237 238 237 240 241 241 244 247 250 253 256 258
250 242 236 233 229 230 229 224 224 228 231 233 232 224 220 221 224 225 226 226 226 227 226 226 230 232 230 227 227 227 232 237 237 236 239 242 243 245 248 250 253 257 258
260 253 248 245 238 234 233 232 230 231 233 232 231 229 226 226 228 228 227 226 226 227 227 226 230 233 231 231 232 231 234 238 240 238 238 242 247 251 252 253 256 257 259
267 258 253 248 243 241 241 241 239 236 235 233 233 232 232 231 231 231 228 227 227 229 229 230 233 237 237 236 236 237 240 242 242 241 239 240 247 249 252 255 257 261 260
272 267 261 254 248 246 246 247 246 244 242 239 237 235 234 233 233 232 229 227 227 230 234 236 236 238 241 242 243 245 248 251 251 250 248 249 251 253 254 256 260 260 264
Height
1513 1514 1514 1514 1513 1513 1513 1512 1511 1511 1510 1509 1509 1508 1507 1507 1506 1505 1505 1504 1504 1503 1503 1502 1502 1502 1502 1501 1501 1501 1501 1502 1501 1500 1500 1499 1498 1497 1496 1495 1494 1493 1492
1510 1510 1510 1510 1509 1509 1508 1508 1507 1507 1506 1505 1505 1504 1503 1503 1502 1502 1501 1501 1500 1500 1499 1499 1499 1499 1498 1498 1498 1498 1498 1498 1498 1497 1496 1495 1495 1494 1493 1492 1491 1491 1490
1506 1506 1506 1506 1505 1505 1504 1504 1503 1503 1502 1502 1501 1500 1500 1499 1499 1498 1498 1497 1497 1496 1496 1496 1496 1496 1495 1495 1495 1495 1495 1494 1494 1493 1493 1492 1492 1491 1490 1489 1489 1488 1488
1502 1502 1502 1502 1501 1501 1500 1499 1499 1499 1499 1498 1498 1497 1496 1496 1496 1495 1495 1495 1494 1494 1494 1493 1493 1493 1493 1493 1492 1492 1492 1492 1491 1491 1490 1489 1489 1488 1488 1487 1486 1486 1485
1498 1498 1498 1498 1497 1496 1496 1496 1495 1495 1495 1495 1495 1494 1494 1494 1493 1493 1493 1493 1492 1492 1492 1492 1491 1491 1491 1490 1490 1490 1490 1489 1489 1488 1488 1487 1486 1486 1485 1484 1483 1483 1482
1495 1495 1494 1493 1493 1492 1492 1492 1492 1492 1492 1492 1492 1492 1491 1491 1491 1491 1491 1491 1491 1491 1490 1490 1490 1489 1489 1489 1488 1488 1488 1487 1487 1486 1485 1485 1484 1483 1482 1481 1481 1480 1479
1490 1490 1490 1489 1489 1489 1489 1489 1490 1490 1490 1490 1490 1490 1490 1490 1490 1490 1490 1490 1490 1489 1489 1489 1488 1488 1487 1487 1486 1486 1485 1484 1484 1484 1483 1482 1481 1480 1480 1479 1478 1477 1476
1486 1486 1486 1486 1486 1486 1486 1487 1488 1488 1489 1489 1489 1489 1489 1489 1489 1489 1489 1489 1489 1488 1488 1487 1487 1486 1486 1485 1484 1483 1483 1482 1481 1481 1480 1479 1478 1478 1477 1476 1475 1474 1473
1482 1482 1482 1482 1483 1483 1484 1485 1486 1487 1487 1488 1488 1488 1488 1488 1488 1488 1488 1488 1487 1487 1487 1486 1485 1485 1484 1483 1482 1481 1480 1480 1479 1478 1477 1477 1476 1475 1474 1474 1473 1472 1471
1478 1479 1479 1479 1480 1481 1482 1483 1484 1485 1486 1486 1486 1487 1487 1487 1487 1487 1487 1487 1486 1486 1485 1484 1483 1483 1482 1481 1480 1480 1479 1478 1477 1476 1475 1474 1473 1472 1472 1471 1471 1470 1469
1475 1475 1476 1476 1477 1478 1479 1481 1482 1483 1484 1484 1485 1485 1485 1485 1486 1485 1485 1485 1485 1484 1483 1482 1482 1481 1480 1479 1478 1478 1477 1476 1475 1474 1473 1472 1471 1470 1469 1469 1468 1467 1466
1471 1472 1473 1474 1475 1476 1477 1478 1479 1481 1481 1482 1483 1483 1483 1483 1483 1483 1483 1483 1483 1482 1481 1480 1480 1479 1478 1477 1476 1475 1474 1474 1473 1472 1471 1470 1469 1468 1467 1466 1465 1464 1463
1468 1469 1470 1471 1472 1473 1474 1475 1477 1478 1479 1479 1480 1480 1481 1481 1481 1481 1481 1481 1480 1480 1479 1478 1477 1476 1475 1474 1473 1472 1472 1471 1470 1469 1468 1467 1466 1465 1464 1463 1461 1460 1459
1464 1465 1467 1468 1469 1470 1471 1472 1473 1474 1475 1476 1477 1477 1478 1478 1478 1478 1478 1478 1477 1477 1476 1475 1474 1473 1472 1471 1470 1469 1469 1468 1467 1466 1465 1464 1463 1462 1460 1459 1458 1456 1455
1461 1462 1463 1464 1465 1466 1467 1469 1470 1471 1472 1473 1474 1474 1475 1475 1475 1475 1475 1474 1474 1474 1473 1472 1471 1470 1469 1468 1467 1466 1465 1464 1464 1463 1461 1460 1459 1458 1456 1455 1454 1452 1451
1456 1457 1458 1460 1461 1462 1463 1464 1465 1467 1468 1469 1469 1470 1470 1471 1471 1471 1471 1471 1470 1470 1469 1468 1467 1466 1465 1464 1463 1462 1461 1460 1459 1458 1457 1456 1455 1453 1452 1451 1449 1448 1446
1452 1453 1454 1455 1456 1457 1458 1459 1460 1462 1463 1464 1464 1465 1466 1466 1466 1467 1466 1466 1466 1465 1464 1463 1463 1462 1461 1460 1459 1458 1457 1456 1455 1454 1453 1451 1450 1448 1447 1445 1444 1442 1440
1447 1448 1449 1450 1451 1452 1453 1454 1455 1456 1457 1457 1459 1460 1460 1461 1461 1461 1462 1461 1460 1460 1459 1458 1457 1457 1456 1455 1454 1453 1452 1451 1450 1449 1447 1446 1445 1443 1441 1440 1438 1436 1434
1442 1442 1443 1444 1445 1446 1447 1448 1449 1450 1451 1452 1453 1453 1454 1455 1455 1455 1455 1455 1454 1454 1453 1452 1452 1451 1450 1449 1448 1447 1446 1445 1444 1443 1442 1440 1439 1437 1435 1434 1432 1430 1428
1436 1437 1438 1438 1439 1440 1441 1441 1442 1443 1444 1444 1445 1446 1447 1448 1447 1448 1448 1448 1447 1447 1447 1446 1445 1445 1444 1443 1442 1441 1440 1439 1438 1437 1435 1434 1432 1431 1429 1427 1425 1424 1421
1431 1431 1432 1432 1433 1433 1434 1435 1435 1436 1436 1437 1438 1439 1440 1440 1440 1440 1440 1440 1440 1440 1440 1439 1439 1438 1438 1437 1436 1435 1434 1433 1432 1430 1429 1427 1425 1424 1422 1420 1418 1417 1414
1426 1426 1426 1426 1427 1427 1427 1428 1428 1429 1429 1430 1430 1431 1431 1431 1432 1432 1432 1432 1432 1432 1432 1432 1431 1431 1431 1430 1429 1428 1427 1426 1425 1423 1422 1420 1418 1416 1415 1413 1411 1409 1407
1421 1421 1420 1421 1421 1421 1421 1421 1422 1422 1422 1422 1422 1423 1423 1423 1423 1424 1424 1424 1424 1424 1424 1424 1424 1424 1423 1422 1422 1421 1419 1418 1417 1416 1414 1412 1411 1409 1407 1405 1403 1402 1400
1416 1415 1415 1415 1415 1415 1415 1415 1415 1415 1415 1414 1414 1414 1415 1415 1415 1415 1416 1416 1416 1416 1417 1416 1416 1416 1416 1415 1414 1413 1412 1411 1410 1408 1407 1405 1403 1401 1399 1397 1395 1394 1392
1411 1411 1410 1410 1409 1409 1408 1408 1408 1407 1407 1407 1406 1406 1407 1407 1407 1407 1408 1408 1409 1409 1409 1409 1409 1409 1408 1408 1407 1406 1405 1403 1402 1400 1399 1397 1395 1393 1391 1389 1387 1385 1383
1407 1406 1405 1404 1404 1403 1402 1402 1401 1401 1400 1400 1399 1399 1399 1399 1400 1400 1400 1401 1401 1402 1402 1402 1402 1402 1401 1400 1399 1398 1397 1396 1394 1393 1391 1389 1387 1385 1383 1381 1379 1377 1374